Regional Weather Roundup
Issued by NWS

Home | Current Version | Previous Version | Graphics & Text | Print | Product List | Glossary On
Versions: 1 2 3 4 5 6 7 8 9 10 11 12 13 14 15 16 17 18 19 20 21 22 23 24 25 26 27 28 29 30 31 32 33 34 35 36 37 38 39 40 41 42 43 44 45 46 47 48 49 50
000
ASUS43 KLSX 020959
RWRMO

WEATHER SUMMARY FOR MISSOURI
NATIONAL WEATHER SERVICE SPRINGFIELD MO
500 AM CDT TUE SEP 02 2014

NOTE: "FAIR" INDICATES FEW OR NO CLOUDS BELOW 12,000 FEET WITH NO
       SIGNIFICANT WEATHER AND/OR OBSTRUCTIONS TO VISIBILITY.
       CURRENT SKY AND/OR WEATHER CONDITIONS ARE NOT AVAILABLE FOR
       CHILLICOTHE AND FARMINGTON.

MOZ001>031-035>038-043-044-053-054-021100-
...NORTHERN AND WESTERN MISSOURI...

CITY           SKY/WX    TMP DP  RH WIND       PRES   REMARKS
KANSAS CTY INT CLOUDY    66  66 100 CALM      29.92F FOG
KANSAS C DTWN  CLOUDY    69  67  93 CALM      29.90F FOG
LEE`S SUMMIT   CLOUDY    70  69  97 NE7       29.93F FOG
ST JOSEPH      PTCLDY    62  61  96 CALM      29.91F FOG
KIRKSVILLE     FOG       65  64  97 CALM      29.91F VSB 1/4

$$
MOZ066>068-077>081-088>096-101>105-021100-
...SOUTHWEST MISSOURI...

CITY           SKY/WX    TMP DP  RH WIND       PRES   REMARKS
SPRINGFIELD    LGT RAIN  68  65  90 CALM      29.93F
JOPLIN         TSTM      70  68  93 S28       29.87F

$$
MOZ032>034-039>042-045>050-055>058-069>072-021100-
...CENTRAL MISSOURI...

CITY           SKY/WX    TMP DP  RH WIND       PRES   REMARKS
COLUMBIA       CLOUDY    69  68  96 SW3       29.91R
JEFFERSON CITY CLOUDY    70  68  93 SE3       29.90S
ROLLA            N/A    N/A N/A N/A MISG      29.91R
SEDALIA        CLOUDY    72  69  90 N3        29.93R
OSAGE BEACH    CLOUDY    72  68  88 CALM      29.92R

$$
MOZ051-052-059>065-021100-
...EAST CENTRAL MISSOURI...

CITY           SKY/WX    TMP DP  RH WIND       PRES   REMARKS
ST LOUIS INTL  CLOUDY    71  68  90 S3        29.89S
SPIRIT OF STL  CLOUDY    69  67  93 S3        29.88S
ST CHARLES     CLOUDY    69  68  96 S3        29.87S

$$
MOZ072>076-082>087-097>100-106>115-021100-
...SOUTH CENTRAL AND SOUTHEAST MISSOURI...

CITY           SKY/WX    TMP DP  RH WIND       PRES   REMARKS
CAPE GIRARDEAU MOCLDY    76  73  91 SW3       29.94R
FARMINGTON     CLOUDY    73  72  94 SE7G17    29.93F
POPLAR BLUFF   CLOUDY    75  71  87 S6        29.94R
WEST PLAINS    LGT RAIN  74  71  91 W15G21    30.01R

$$


USA.gov is the U.S. government's official web portal to all federal, state and local government web resources and services.